PBO Station Position Time Series. Reference Frame : NAM14
Format Version,1.1.0
4-character ID,P245
Station name,YOSTurtleDCN2008
Begin Date, 2008-04-11
End Date, 2019-10-01
Release Date, 2019-10-08
Reference position, 37.7131163421 North Latitude, -119.7061224673 East Longitude, 1579.84249 meters elevation,
Date, North (mm), East (mm), Vertical (mm), North Std. Deviation (mm), East Std. Deviation (mm),              Vertical Std. Deviation (mm), Quality,
2008-04-11,0.00, 0.00, 0.00, 2.01, 1.60, 7.35, repro,
2008-04-12,-0.18, 0.92, -7.31, 2.02, 1.61, 7.36, repro,
2008-04-13,0.74, 0.52, -5.86, 2.01, 1.60, 7.32, repro,
2008-04-14,-0.86, -0.27, -3.46, 2.02, 1.60, 7.37, repro,
2008-04-15,1.09, -0.17, 7.91, 2.06, 1.70, 7.57, repro,
2008-04-16,0.90, -0.52, 1.93, 2.03, 1.65, 7.42, repro,
2008-04-17,0.12, -0.14, 0.45, 2.02, 1.58, 7.31, repro,
2008-04-18,-0.30, 0.27, 0.76, 2.03, 1.59, 7.33, repro,
2008-04-19,-0.36, -0.58, 2.51, 2.02, 1.60, 7.32, repro,
2008-04-20,0.09, 0.55, 3.50, 2.03, 1.62, 7.54, repro,
2008-04-21,-0.63, -0.25, 4.54, 2.01, 1.61, 7.33, repro,
2008-04-22,-2.37, -0.11, 3.48, 2.07, 1.65, 7.71, repro,
2008-04-23,-0.37, -0.08, -3.79, 2.11, 1.67, 7.72, repro,
2008-04-24,0.76, 1.44, -6.52, 2.05, 1.65, 7.58, repro,
2008-04-25,1.02, -0.00, -5.34, 2.04, 1.60, 7.41, repro,
2008-04-26,-0.15, -0.91, -4.30, 2.11, 1.64, 7.55, repro,
2008-04-27,-0.42, 0.90, -3.08, 2.12, 1.63, 7.59, repro,
2008-04-28,-1.03, 1.65, -3.18, 2.12, 1.61, 7.57, repro,
2008-04-29,-0.34, 0.70, 4.10, 2.28, 1.66, 7.96, repro,
2008-04-30,-0.27, -0.19, -1.93, 2.10, 1.64, 7.58, repro,
2008-05-01,1.31, 0.70, 4.53, 2.07, 1.65, 7.54, repro,
2008-05-02,-0.78, 0.55, 2.22, 2.11, 1.66, 7.59, repro,
2008-05-03,0.10, 0.12, 4.22, 2.06, 1.62, 7.54, repro,
2008-05-04,-1.60, 0.88, 9.57, 2.05, 1.61, 7.45, repro,
2008-05-05,-1.44, 1.61, -0.05, 2.08, 1.63, 7.54, repro,
2008-05-06,-2.33, -0.52, 7.12, 2.08, 1.63, 7.50, repro,
2008-05-07,0.21, 0.66, 4.38, 2.07, 1.64, 7.51, repro,
2008-05-08,-0.63, -0.18, 0.57, 2.31, 1.80, 8.19, repro,
2008-05-09,-0.97, 0.64, 3.85, 2.14, 1.70, 7.73, repro,
2008-05-10,-0.84, 0.76, 5.34, 2.10, 1.63, 7.59, repro,
2008-05-11,-0.48, 0.78, 7.22, 2.06, 1.61, 7.44, repro,
2008-05-12,-1.30, -0.82, 11.14, 2.06, 1.61, 7.46, repro,
2008-05-13,0.48, 0.57, 6.03, 2.05, 1.61, 7.46, repro,
2008-05-14,-0.93, 0.83, 2.60, 2.06, 1.60, 7.43, repro,
2008-05-15,-1.20, 0.63, 0.41, 2.06, 1.59, 7.44, repro,
2008-05-16,-1.31, 1.58, -4.47, 2.06, 1.60, 7.45, repro,
2008-05-17,-0.31, -0.42, 4.47, 2.09, 1.62, 7.50, repro,
2008-05-18,-0.40, 0.13, -1.55, 2.11, 1.66, 7.67, repro,
2008-05-19,-1.12, 0.85, 0.67, 2.05, 1.64, 7.55, repro,
2008-05-20,-2.35, -0.39, 10.93, 2.05, 1.61, 7.46, repro,
2008-05-21,-2.51, 1.19, 10.42, 2.02, 1.60, 7.36, repro,
2008-05-22,-2.26, 0.72, 8.92, 2.09, 1.64, 7.55, repro,
2008-05-23,-1.02, -0.68, 18.60, 2.06, 1.63, 7.54, repro,
2008-05-24,-0.97, -0.33, 5.01, 2.04, 1.60, 7.44, repro,
2008-05-25,-1.84, -0.01, 7.17, 2.05, 1.61, 7.45, repro,
2008-05-26,-2.50, 1.12, 8.16, 2.05, 1.62, 7.45, repro,
2008-05-27,-1.32, 0.80, 4.03, 2.02, 1.57, 7.33, repro,
2008-05-28,0.95, -1.73, 8.40, 2.10, 1.66, 7.64, repro,
2008-05-29,-0.54, 0.09, 0.42, 2.09, 1.67, 7.62, repro,
2008-05-30,-0.45, 2.23, 1.03, 2.04, 1.60, 7.43, repro,
2008-05-31,1.05, 0.81, 3.60, 2.05, 1.60, 7.45, repro,
2008-06-01,-1.69, 1.38, 5.01, 2.05, 1.59, 7.40, repro,
2008-06-02,-0.59, 1.27, 4.78, 2.03, 1.59, 7.43, repro,
2008-06-03,-0.81, 0.57, 5.24, 2.12, 1.67, 7.73, repro,
2008-06-04,-3.04, 1.47, 7.48, 2.04, 1.62, 7.45, repro,
2008-06-05,-0.26, 0.56, 8.36, 2.03, 1.60, 7.38, repro,
2008-06-06,-0.88, 0.96, 6.73, 2.06, 1.60, 7.43, repro,
2008-06-07,-0.37, -0.78, 10.54, 2.12, 1.68, 7.71, repro,
2008-06-08,1.14, 0.84, 8.34, 2.08, 1.63, 7.49, repro,
2008-06-09,-1.48, 1.76, 5.50, 2.09, 1.66, 7.59, repro,
2008-06-10,-3.00, 0.18, 6.16, 2.05, 1.61, 7.44, repro,
2008-06-11,-0.01, 0.67, 6.24, 2.05, 1.58, 7.39, repro,
2008-06-12,-1.27, 1.38, 10.60, 2.07, 1.62, 7.56, repro,
2008-06-13,-2.15, 1.21, 6.55, 2.03, 1.60, 7.37, repro,
2008-06-14,-0.95, 2.02, 6.15, 2.09, 1.65, 7.55, repro,
2008-06-15,-0.73, 1.61, 3.56, 2.10, 1.64, 7.63, repro,
2008-06-16,-0.70, 0.61, 7.77, 2.04, 1.61, 7.43, repro,
2008-06-17,-1.64, 0.07, 5.18, 2.06, 1.60, 7.51, repro,
2008-06-18,-1.55, 1.92, 4.02, 2.04, 1.61, 7.50, repro,
2008-06-19,-0.49, 1.93, 1.51, 2.12, 1.74, 7.96, repro,
2008-06-20,-2.26, 0.79, 4.99, 2.04, 1.60, 7.39, repro,
2008-06-21,0.43, -0.94, 10.14, 2.16, 1.76, 8.05, repro,
2008-06-22,-2.19, 1.16, 7.28, 2.05, 1.61, 7.43, repro,
2008-06-23,-2.69, 0.95, 7.29, 2.09, 1.68, 7.65, repro,
2008-06-24,-2.67, 0.69, 11.72, 2.06, 1.64, 7.43, repro,
2008-06-25,-1.24, 1.29, 11.38, 2.04, 1.60, 7.36, repro,
2008-06-26,-0.55, 0.25, 11.33, 2.13, 1.70, 7.86, repro,
2008-06-27,-1.68, 0.74, 13.26, 2.06, 1.61, 7.40, repro,
2008-06-28,-3.43, 1.88, 7.25, 2.11, 1.69, 7.73, repro,
2008-06-29,-1.48, -1.64, 14.13, 2.06, 1.66, 7.46, repro,
2008-06-30,-0.58, -0.57, 11.05, 2.05, 1.62, 7.43, repro,
2008-07-01,-1.36, 1.27, 11.67, 2.07, 1.62, 7.43, repro,
2008-07-02,-0.83, -0.92, 6.15, 2.04, 1.62, 7.40, repro,
2008-07-03,-1.68, -1.53, 8.99, 2.06, 1.62, 7.50, repro,
2008-07-04,-0.09, 0.97, 6.43, 2.10, 1.66, 7.72, repro,
2008-07-05,-1.34, 2.20, 4.09, 2.06, 1.61, 7.41, repro,
2008-07-06,-3.34, -0.81, 21.56, 2.06, 1.65, 7.59, repro,
2008-07-07,-1.51, 0.26, 7.65, 2.15, 1.75, 7.88, repro,
2008-07-08,-0.91, -3.16, 7.94, 2.21, 1.72, 8.12, repro,
2008-07-09,-2.82, -1.16, 8.61, 2.09, 1.62, 7.57, repro,
2008-07-10,0.93, -0.52, 7.38, 2.15, 1.66, 7.77, repro,
2008-07-11,-1.99, 0.79, 7.36, 2.14, 1.67, 7.77, repro,
2008-07-12,-3.41, -0.92, 14.36, 2.07, 1.63, 7.60, repro,
2008-07-13,-2.21, -1.37, 11.21, 2.20, 1.85, 8.22, repro,
2008-07-14,-4.11, -1.10, 13.78, 2.16, 1.79, 8.02, repro,
2008-07-15,-1.88, 0.02, 6.38, 2.08, 1.65, 7.67, repro,
2008-07-16,-3.24, 0.37, 10.43, 2.16, 1.70, 8.05, repro,
2008-07-17,-2.66, -0.94, 8.75, 2.13, 1.64, 7.79, repro,
2008-07-18,-3.42, -0.30, 14.01, 2.25, 1.71, 8.26, repro,
2008-07-19,-2.87, 0.60, 15.86, 2.15, 1.65, 7.88, repro,
2008-07-20,-3.12, -1.64, 13.10, 2.08, 1.63, 7.59, repro,
2008-07-21,-3.11, 1.00, 7.30, 2.14, 1.66, 7.83, repro,
2008-07-22,-2.57, -1.39, 18.20, 2.11, 1.65, 7.70, repro,
2008-07-23,-3.27, -0.32, 14.11, 2.18, 1.67, 7.97, repro,
2008-07-24,-1.15, -0.78, 16.63, 2.12, 1.68, 7.81, repro,
2008-07-25,-1.72, 0.38, 16.03, 2.07, 1.64, 7.63, repro,
2008-07-26,-2.79, -0.27, 10.49, 2.10, 1.67, 7.72, repro,
2008-07-27,-3.07, 0.75, 18.63, 2.08, 1.64, 7.79, repro,
2008-07-28,-1.81, -0.82, 14.69, 2.22, 1.70, 8.16, repro,
2008-07-29,-1.15, 0.15, 21.14, 2.20, 1.70, 8.34, repro,
2008-07-30,-1.66, 1.28, 22.05, 2.19, 1.68, 8.10, repro,
2008-07-31,-2.96, -0.12, 15.13, 2.11, 1.65, 7.83, repro,
2008-08-01,-1.62, -0.18, 17.33, 2.12, 1.67, 7.88, repro,
2008-08-02,-1.89, -1.06, 18.00, 2.10, 1.68, 7.82, repro,
2008-08-03,-2.82, -1.59, 17.10, 2.21, 1.73, 8.13, repro,
2008-08-04,-2.95, -0.54, 15.37, 2.13, 1.70, 7.95, repro,
2008-08-05,-2.57, -1.85, 16.89, 2.12, 1.68, 7.91, repro,
2008-08-06,-3.47, -1.17, 7.52, 2.14, 1.66, 7.85, repro,
2008-08-07,-1.50, -0.43, 18.16, 2.25, 1.79, 8.33, repro,
2008-08-08,0.84, -0.82, 16.61, 2.23, 1.77, 8.21, repro,
2008-08-09,-0.71, 2.23, 19.07, 2.19, 1.72, 8.13, repro,
2008-08-10,-1.33, -0.40, 11.65, 2.18, 1.69, 8.06, repro,
2008-08-11,-2.11, 0.07, 7.97, 2.17, 1.70, 8.11, repro,
2008-08-12,-2.19, -0.23, 18.55, 2.21, 1.74, 8.31, repro,
2008-08-13,-2.66, -0.75, 11.81, 2.20, 1.72, 8.23, repro,
2008-08-14,-2.82, -1.00, 13.15, 2.21, 1.74, 8.24, repro,
2008-08-15,-2.54, -0.43, 11.86, 2.28, 1.85, 8.81, repro,
2008-08-16,-3.93, -1.97, 12.30, 2.28, 1.82, 8.54, repro,
2008-08-17,-3.11, -2.14, 23.15, 2.21, 1.73, 8.28, repro,
2008-08-18,-2.35, -2.20, 28.18, 2.21, 1.73, 8.32, repro,
2008-08-19,-0.41, -2.03, 12.58, 2.25, 1.74, 8.52, repro,
2008-08-20,-1.92, -2.68, 20.53, 2.24, 1.75, 8.56, repro,
2008-08-21,-1.45, -1.72, 19.70, 2.29, 1.77, 8.67, repro,
2008-08-22,-0.32, -2.54, 19.46, 2.27, 1.79, 8.59, repro,
2008-08-23,-0.75, 0.83, 11.99, 2.23, 1.81, 8.59, repro,
2008-08-24,-1.10, -1.07, 7.39, 2.29, 1.82, 8.69, repro,
2008-08-25,-3.03, 0.14, 12.25, 2.29, 1.81, 8.78, repro,
2008-08-26,-1.87, -2.26, 28.64, 2.32, 1.82, 8.73, repro,
2008-08-27,-3.57, -2.00, 28.23, 2.36, 1.95, 8.91, repro,
2008-08-28,-1.70, -1.82, 17.81, 2.42, 1.86, 8.99, repro,
2008-08-29,0.81, -1.25, 14.37, 2.27, 1.81, 8.48, repro,
2008-08-30,-1.79, -1.21, 21.55, 2.12, 1.61, 7.53, repro,
2008-08-31,-1.56, -0.28, 21.20, 2.11, 1.61, 7.53, repro,
2008-09-01,-1.86, -1.59, 17.10, 2.11, 1.63, 7.61, repro,
2008-09-02,-2.38, -0.84, 15.90, 2.09, 1.62, 7.51, repro,
2008-09-03,-1.09, -0.60, 16.81, 2.10, 1.61, 7.51, repro,
2008-09-04,-1.22, -1.63, 18.91, 2.21, 1.71, 8.02, repro,
2008-09-05,-1.40, -1.43, 15.00, 2.17, 1.64, 7.67, repro,
2008-09-06,-0.97, -0.86, 16.46, 2.10, 1.61, 7.55, repro,
2008-09-07,-1.31, -0.54, 17.32, 2.13, 1.65, 7.68, repro,
2008-09-08,-1.59, -1.19, 21.24, 2.09, 1.60, 7.50, repro,
2008-09-09,-2.49, -0.95, 23.54, 2.12, 1.59, 7.54, repro,
2008-09-10,-1.90, -0.66, 17.14, 2.17, 1.69, 7.91, repro,
2008-09-11,-1.14, -2.27, 21.55, 2.18, 1.71, 7.99, repro,
2008-09-12,-1.48, -1.90, 19.23, 2.24, 1.80, 8.29, repro,
2008-09-13,-2.05, -1.21, 23.11, 2.16, 1.69, 7.83, repro,
2008-09-14,-1.18, 0.19, 15.57, 2.12, 1.64, 7.68, repro,
2008-09-15,-3.20, -1.37, 21.69, 2.13, 1.63, 7.61, repro,
2008-09-16,-2.10, -0.83, 17.35, 2.13, 1.67, 7.67, repro,
2008-09-17,-1.37, -1.99, 15.32, 2.17, 1.64, 7.68, repro,
2008-09-18,-2.34, 0.29, 13.66, 2.07, 1.58, 7.39, repro,
2008-09-19,-0.32, -1.52, 25.91, 2.09, 1.58, 7.46, repro,
2008-09-20,-0.64, -0.14, 19.07, 2.08, 1.57, 7.40, repro,
2008-09-21,-0.82, -1.04, 16.57, 2.12, 1.61, 7.54, repro,
2008-09-22,-1.65, -1.12, 15.37, 2.10, 1.61, 7.63, repro,
2008-09-23,-1.49, -0.49, 19.81, 2.06, 1.58, 7.37, repro,
2008-09-24,-1.84, -0.57, 21.18, 2.16, 1.68, 7.84, repro,
2008-09-25,-2.52, -0.32, 20.26, 2.10, 1.61, 7.54, repro,
2008-09-26,-2.02, 0.99, 17.43, 2.06, 1.57, 7.33, repro,
2008-09-27,-1.87, -0.75, 19.21, 2.11, 1.61, 7.52, repro,
2008-09-28,-1.51, -0.94, 20.49, 2.07, 1.57, 7.38, repro,
2008-09-29,-2.58, -0.22, 12.04, 2.08, 1.59, 7.42, repro,
2008-09-30,-0.40, -0.18, 15.65, 2.09, 1.58, 7.45, repro,
2008-10-01,-1.37, -0.85, 19.33, 2.06, 1.57, 7.29, repro,
2008-10-02,-3.19, -0.42, 19.86, 2.15, 1.67, 7.80, repro,
2008-10-03,-1.74, -0.77, 27.20, 2.16, 1.67, 7.80, repro,
2008-10-04,-0.56, -1.19, 20.58, 2.11, 1.62, 7.57, repro,
2008-10-05,-1.12, -0.52, 12.26, 2.12, 1.62, 7.58, repro,
2008-10-06,-1.57, -0.72, 14.94, 2.08, 1.57, 7.34, repro,
2008-10-07,-0.96, -0.47, 13.86, 2.10, 1.58, 7.48, repro,
2008-10-08,-2.39, 0.51, 13.43, 2.08, 1.61, 7.48, repro,
2008-10-09,-2.05, -0.63, 19.14, 2.05, 1.57, 7.35, repro,
2008-10-10,-1.69, -1.39, 14.57, 2.03, 1.56, 7.31, repro,
2008-10-11,-1.78, 0.08, 14.17, 2.01, 1.56, 7.24, repro,
2008-10-12,-0.32, -0.54, 11.93, 2.02, 1.55, 7.21, repro,
2008-10-13,-1.14, -0.15, 11.26, 2.03, 1.56, 7.27, repro,
2008-10-14,-1.12, 0.58, 10.83, 2.03, 1.56, 7.31, repro,
2008-10-15,-0.90, -0.68, 12.44, 2.10, 1.58, 7.50, repro,
2008-10-16,-0.57, 0.71, 10.75, 2.08, 1.59, 7.45, repro,
2008-10-17,-1.08, -0.39, 5.61, 2.01, 1.55, 7.21, repro,
2008-10-18,-2.36, -2.04, 17.91, 2.03, 1.57, 7.28, repro,
2008-10-19,-1.65, -0.62, 18.40, 2.03, 1.56, 7.27, repro,
2008-10-20,-1.91, -0.58, 12.41, 2.03, 1.56, 7.30, repro,
2008-10-21,-2.24, 0.07, 14.20, 2.15, 1.60, 7.56, repro,
2008-10-22,-0.91, -0.40, 9.87, 2.01, 1.56, 7.20, repro,
2008-10-23,-0.62, -0.18, 13.49, 2.01, 1.55, 7.17, repro,
2008-10-24,-0.97, 0.28, 15.65, 2.03, 1.56, 7.26, repro,
2008-10-25,-1.07, 0.38, 18.06, 2.03, 1.56, 7.32, repro,
2008-10-26,-1.49, -1.01, 13.93, 2.03, 1.56, 7.29, repro,
2008-10-27,-1.33, -0.24, 6.21, 2.02, 1.56, 7.21, repro,
2008-10-28,-1.29, 0.32, 3.90, 2.09, 1.58, 7.35, repro,
2008-10-29,-2.81, -0.61, 11.95, 2.12, 1.58, 7.44, repro,
2008-10-30,-2.12, -0.31, 22.12, 2.10, 1.58, 7.48, repro,
2008-10-31,-4.73, 1.09, 6.39, 2.12, 1.63, 7.65, repro,
2008-11-01,-3.09, -0.38, 12.89, 2.07, 1.60, 7.43, repro,
2008-11-02,-1.81, -0.39, 18.66, 2.09, 1.63, 7.51, repro,
2008-11-03,-1.59, -0.53, 14.58, 2.11, 1.64, 7.52, repro,
2008-11-04,-0.33, -0.24, 15.09, 2.06, 1.61, 7.44, repro,
2008-11-05,-0.13, -0.96, 14.70, 2.04, 1.60, 7.41, repro,
2008-11-06,-1.06, -0.69, 9.09, 2.04, 1.61, 7.43, repro,
2008-11-07,-0.28, 0.06, 7.85, 2.06, 1.63, 7.45, repro,
2008-11-08,-0.09, -0.21, 9.66, 2.07, 1.63, 7.46, repro,
2008-11-09,0.50, -0.70, 15.66, 2.07, 1.62, 7.49, repro,
2008-11-10,-1.42, -0.61, 18.78, 2.08, 1.62, 7.50, repro,
2008-11-11,-0.08, -1.14, 14.04, 2.14, 1.72, 7.88, repro,
2008-11-12,1.97, -2.02, 15.55, 2.04, 1.58, 7.32, repro,
2008-11-13,0.61, -1.23, 15.81, 2.09, 1.62, 7.47, repro,
2008-11-14,0.91, -1.01, 9.92, 2.12, 1.68, 7.59, repro,
2008-11-15,-1.46, 0.70, 13.21, 2.08, 1.60, 7.45, repro,
2008-11-16,-0.44, 0.31, 8.06, 2.13, 1.70, 7.74, repro,
2008-11-17,-1.05, -0.15, 9.16, 2.11, 1.68, 7.58, repro,
2008-11-18,-0.48, 0.25, 6.96, 2.24, 1.89, 8.34, repro,
2008-11-19,-0.24, 0.69, 6.02, 2.16, 1.71, 7.83, repro,
2008-11-20,-0.71, -0.47, 7.52, 2.13, 1.70, 7.68, repro,
2008-11-21,-0.73, 0.89, 7.05, 2.27, 1.86, 8.46, repro,
2008-11-22,0.17, 0.46, 13.12, 2.14, 1.74, 7.94, repro,
2008-11-23,0.19, 0.08, 10.48, 2.17, 1.71, 7.74, repro,
2008-11-24,-0.25, 0.44, 11.30, 2.22, 1.77, 7.89, repro,
2008-11-25,-0.80, -0.07, 12.06, 2.13, 1.73, 7.77, repro,
2008-11-26,0.03, -0.01, 14.15, 2.04, 1.58, 7.39, repro,
2008-11-27,0.56, -0.27, 9.89, 2.08, 1.67, 7.64, repro,
2008-11-28,-0.43, -0.17, 12.05, 2.12, 1.71, 7.69, repro,
2008-11-29,-2.31, 0.09, 7.52, 2.17, 1.75, 8.05, repro,
2008-11-30,-0.79, -0.52, 14.81, 2.06, 1.62, 7.49, repro,
2008-12-01,0.07, 0.58, 14.36, 2.03, 1.57, 7.34, repro,
2008-12-02,0.21, 0.44, 15.27, 2.10, 1.66, 7.55, repro,
2008-12-03,0.18, 0.61, 14.91, 2.08, 1.66, 7.55, repro,
2008-12-04,-0.05, 0.87, 8.71, 2.20, 1.80, 8.02, repro,
2008-12-05,-0.04, 0.55, 10.72, 2.05, 1.61, 7.44, repro,
2008-12-06,0.07, 0.70, 12.28, 2.13, 1.76, 7.82, repro,
2008-12-07,0.62, 0.39, 12.40, 2.15, 1.76, 7.88, repro,
2008-12-08,0.14, -0.01, 14.11, 2.06, 1.64, 7.56, repro,
2008-12-09,0.31, 0.08, 9.47, 2.06, 1.61, 7.37, repro,
2008-12-10,0.86, 0.58, 5.07, 2.04, 1.60, 7.44, repro,
2008-12-11,0.33, 0.32, 11.03, 2.18, 1.72, 7.84, repro,
2008-12-12,-0.34, 0.49, 16.11, 2.17, 1.73, 7.91, repro,
2008-12-13,1.13, 0.06, 12.88, 2.03, 1.58, 7.32, repro,
2008-12-14,0.56, 0.10, 13.68, 2.03, 1.56, 7.22, repro,
2008-12-15,1.61, -1.54, 9.76, 2.03, 1.59, 7.38, repro,
2008-12-16,0.13, -0.89, 14.49, 2.02, 1.55, 7.26, repro,
2008-12-17,0.90, -0.48, 7.34, 2.10, 1.60, 7.55, repro,
2008-12-18,1.21, 0.63, 9.30, 2.02, 1.55, 7.22, repro,
2008-12-19,1.33, 0.28, 4.84, 2.08, 1.56, 7.45, repro,
2008-12-20,1.84, 0.56, 5.08, 2.06, 1.63, 7.48, repro,
2008-12-21,0.51, 0.31, 8.46, 2.09, 1.66, 7.65, repro,
2008-12-22,-0.18, 0.77, 11.59, 2.02, 1.56, 7.33, repro,
2008-12-23,2.12, -0.67, 10.72, 2.02, 1.55, 7.30, repro,
2008-12-24,2.28, 0.61, 9.76, 2.04, 1.55, 7.31, repro,
2008-12-25,0.18, 2.13, 11.86, 2.03, 1.57, 7.36, repro,
2008-12-26,0.75, 0.31, 16.68, 2.01, 1.56, 7.26, repro,
2008-12-27,0.62, 1.08, 11.50, 2.01, 1.56, 7.27, repro,
2008-12-28,1.81, 0.96, -0.36, 2.02, 1.56, 7.32, repro,
2008-12-29,1.29, 1.58, 1.52, 2.03, 1.56, 7.29, repro,
2008-12-30,1.34, 0.81, 0.56, 2.03, 1.56, 7.33, repro,
2008-12-31,0.28, 0.46, 7.65, 2.01, 1.55, 7.25, repro,
2009-01-01,0.67, 1.02, 10.98, 2.01, 1.55, 7.25, repro,
2009-01-02,0.95, 0.83, 8.32, 2.02, 1.55, 7.27, repro,
2009-01-03,0.86, 1.12, 5.18, 2.04, 1.58, 7.38, repro,
2009-01-04,1.65, 0.53, 4.73, 2.04, 1.56, 7.32, repro,
2009-01-05,1.30, -0.26, 7.88, 2.01, 1.54, 7.20, repro,
2009-01-06,3.36, 0.07, 7.55, 2.01, 1.54, 7.20, repro,
2009-01-07,-0.18, 1.40, 7.38, 2.00, 1.55, 7.25, repro,
2009-01-08,-0.05, 0.68, 7.16, 2.08, 1.67, 7.68, repro,
2009-01-09,0.66, 0.38, 9.26, 2.10, 1.65, 7.57, repro,
2009-01-10,0.54, 0.98, -3.75, 2.06, 1.60, 7.48, repro,
2009-01-11,0.42, 0.64, 2.62, 2.05, 1.59, 7.48, repro,
2009-01-12,0.82, 0.91, -0.41, 2.00, 1.56, 7.24, repro,
2009-01-13,0.17, 1.56, -0.41, 2.00, 1.56, 7.22, repro,
2009-01-14,0.16, 1.50, -2.07, 2.01, 1.57, 7.26, repro,
2009-01-15,0.43, 1.15, 0.56, 2.02, 1.57, 7.24, repro,
2009-01-16,1.01, 1.99, -4.66, 2.02, 1.57, 7.30, repro,
2009-01-17,0.49, 1.40, -0.02, 2.01, 1.57, 7.23, repro,
2009-01-18,1.42, 1.55, 1.45, 2.00, 1.57, 7.21, repro,
2009-01-19,0.65, 1.38, 0.23, 2.01, 1.58, 7.21, repro,
2009-01-20,-0.29, 1.80, 6.10, 2.00, 1.57, 7.22, repro,
2009-01-21,-0.57, 1.56, 11.04, 2.03, 1.57, 7.27, repro,
2009-01-22,-1.31, 1.49, 7.01, 2.03, 1.61, 7.36, repro,
2009-01-23,0.43, -0.04, 3.89, 2.01, 1.57, 7.25, repro,
2009-01-24,2.08, 0.74, 1.16, 2.00, 1.57, 7.24, repro,
2009-01-25,0.19, 1.33, 3.85, 2.00, 1.57, 7.25, repro,
2009-01-26,0.47, 0.17, 2.46, 2.02, 1.58, 7.31, repro,
2009-01-27,0.29, 0.83, 4.08, 2.02, 1.57, 7.24, repro,
2009-01-28,1.33, -0.38, 0.70, 2.03, 1.59, 7.32, repro,
2009-01-29,0.48, 2.95, 2.05, 2.00, 1.57, 7.23, repro,
2009-01-30,1.07, 1.25, -0.71, 2.00, 1.58, 7.26, repro,
2009-01-31,-0.25, 1.65, 4.90, 2.02, 1.58, 7.30, repro,
2009-02-01,-0.17, 0.37, 2.41, 2.04, 1.61, 7.42, repro,
2009-02-02,-0.09, 0.80, 3.45, 2.06, 1.61, 7.40, repro,
2009-02-03,0.46, 1.63, -3.41, 1.99, 1.56, 7.15, repro,
2009-02-04,-0.50, 2.03, 2.13, 2.00, 1.58, 7.24, repro,
2009-02-05,-0.16, 1.25, 7.05, 2.04, 1.63, 7.44, repro,
2009-02-06,0.82, -0.62, 4.03, 2.08, 1.65, 7.52, repro,
2009-02-07,0.33, 0.62, 6.84, 2.08, 1.65, 7.52, repro,
2009-02-08,1.31, -0.08, 3.62, 2.00, 1.57, 7.19, repro,
2009-02-09,1.33, -0.01, 11.95, 2.02, 1.61, 7.32, repro,
2009-02-10,0.25, 0.66, 5.20, 2.01, 1.60, 7.29, repro,
2009-02-11,1.09, 1.47, -1.28, 2.07, 1.67, 7.54, repro,
2009-02-12,1.74, -0.16, 1.86, 2.05, 1.63, 7.43, repro,
2009-02-13,-0.84, 0.04, 4.94, 2.05, 1.61, 7.41, repro,
2009-02-14,0.85, 0.77, 10.68, 2.04, 1.62, 7.26, repro,
2009-02-15,-1.72, 0.37, 1.33, 2.03, 1.61, 7.41, repro,
2009-02-16,0.46, 1.27, 7.89, 2.06, 1.66, 7.63, repro,
2009-02-17,-1.00, -0.52, 4.35, 2.06, 1.59, 7.33, repro,
2009-02-18,2.16, 1.36, 0.44, 2.21, 1.76, 8.26, repro,
2009-02-19,1.09, 1.26, -0.24, 2.08, 1.65, 7.67, repro,
2009-02-20,-0.66, 1.02, 6.18, 2.01, 1.61, 7.32, repro,
2009-02-21,-0.87, -0.75, 4.96, 2.02, 1.62, 7.45, repro,
2009-02-22,2.61, -0.77, 0.15, 2.02, 1.62, 7.45, repro,
2009-02-23,-0.41, 0.60, -2.56, 2.07, 1.66, 7.58, repro,
2009-02-24,1.09, 1.30, -3.33, 2.15, 1.76, 8.03, repro,
2009-02-25,-0.16, 1.23, -1.42, 183.47, 98.49, 213.04, repro,
2009-02-26,0.61, 0.65, 1.27, 2.07, 1.69, 7.66, repro,
2009-02-27,1.02, 0.77, -8.98, 2.19, 1.77, 8.27, repro,
2009-02-28,0.14, 0.51, -6.41, 2.08, 1.72, 7.84, repro,
2009-03-01,1.23, 1.31, 2.84, 2.09, 1.68, 7.71, repro,
2009-03-02,-0.65, 2.33, -3.55, 2.07, 1.67, 7.64, repro,
2009-03-03,1.60, 0.81, 0.82, 2.12, 1.71, 7.80, repro,
2009-03-04,-0.20, 3.05, 4.44, 2.01, 1.62, 7.38, repro,
2009-03-05,1.21, 1.28, 3.28, 2.08, 1.74, 7.85, repro,
2009-03-06,2.61, 0.12, 3.76, 2.13, 1.80, 8.08, repro,
2009-03-07,3.07, -0.13, 3.36, 2.11, 1.72, 7.82, repro,
2009-03-08,2.00, 1.19, 2.61, 2.04, 1.63, 7.44, repro,
2009-03-09,1.35, 1.35, 0.32, 2.08, 1.73, 7.83, repro,
2009-03-10,1.79, 0.74, -1.51, 2.02, 1.62, 7.37, repro,
2009-03-11,1.76, -0.09, 1.15, 2.02, 1.64, 7.39, repro,
2009-03-12,1.53, 0.11, -3.28, 2.03, 1.63, 7.49, repro,
2009-03-13,1.60, 0.36, -0.43, 2.06, 1.68, 7.64, repro,
2009-03-14,3.25, 0.47, 1.65, 2.05, 1.67, 7.59, repro,
2009-03-15,1.84, 0.02, 6.36, 2.02, 1.64, 7.36, repro,
2009-03-16,0.17, 0.82, -0.62, 2.02, 1.62, 7.32, repro,
2009-03-17,1.10, 1.43, -0.22, 2.07, 1.69, 7.48, repro,
2009-03-18,2.67, 1.02, -6.23, 2.01, 1.59, 7.23, repro,
2009-03-19,1.42, 1.13, -2.80, 2.05, 1.63, 7.33, repro,
2009-03-20,-0.23, 1.17, 2.87, 2.00, 1.60, 7.25, repro,
2009-03-21,1.43, 2.41, 4.65, 1.99, 1.60, 7.21, repro,
2009-03-22,1.04, 2.56, 2.05, 2.02, 1.62, 7.31, repro,
2009-03-23,0.72, 0.47, 1.02, 2.03, 1.65, 7.33, repro,
2009-03-24,1.73, 1.54, -2.74, 2.00, 1.59, 7.19, repro,
2009-03-25,1.92, 0.29, 2.18, 2.01, 1.59, 7.22, repro,
2009-03-26,2.22, 0.16, 0.28, 2.00, 1.59, 7.19, repro,
2009-03-27,0.71, 0.89, 1.94, 2.03, 1.59, 7.24, repro,
2009-03-28,2.66, 0.44, -0.47, 2.05, 1.60, 7.30, repro,
2009-03-29,1.64, 0.94, 2.07, 2.05, 1.60, 7.29, repro,
2009-03-30,1.48, -0.33, 8.05, 2.06, 1.61, 7.36, repro,
2009-03-31,1.81, 0.09, -2.55, 2.05, 1.60, 7.29, repro,
2009-04-01,3.00, 0.16, 3.78, 2.04, 1.60, 7.26, repro,
2009-04-02,1.91, -0.38, -1.47, 2.11, 1.64, 7.50, repro,
2009-04-03,2.47, -0.31, 6.69, 2.13, 1.72, 7.75, repro,
2009-04-04,0.17, 0.27, 2.46, 2.08, 1.63, 7.45, repro,
2009-04-05,1.05, 0.32, -0.13, 2.07, 1.60, 7.34, repro,
2009-04-06,-0.18, 0.85, -2.58, 2.07, 1.62, 7.35, repro,
2009-04-07,1.31, 0.53, 2.01, 2.06, 1.59, 7.30, repro,
2009-04-08,2.43, 2.21, 6.16, 2.06, 1.59, 7.28, repro,
2009-04-09,-0.10, -0.26, 3.83, 2.11, 1.64, 7.47, repro,
2009-04-10,0.48, -0.36, 2.88, 2.08, 1.61, 7.37, repro,
2009-04-11,2.17, 0.94, -4.61, 2.10, 1.62, 7.37, repro,
2009-04-12,1.33, 0.21, -5.68, 2.11, 1.62, 7.41, repro,
2009-04-13,0.65, -0.16, -6.49, 2.11, 1.63, 7.38, repro,
2009-04-14,0.87, 0.56, 0.92, 2.09, 1.60, 7.30, repro,
2009-04-15,0.54, -0.16, 5.85, 2.15, 1.66, 7.46, repro,
2009-04-16,1.22, 0.42, -0.98, 2.12, 1.64, 7.47, repro,
2009-04-17,1.56, 1.07, -6.33, 2.10, 1.62, 7.37, repro,
2009-04-18,0.99, 1.55, -0.31, 2.08, 1.60, 7.31, repro,
2009-04-19,1.33, 0.53, 1.39, 2.12, 1.63, 7.38, repro,
2009-04-20,0.18, 0.54, -0.47, 2.08, 1.60, 7.29, repro,
2009-04-21,-0.20, -0.01, 0.57, 2.11, 1.63, 7.37, repro,
2009-04-22,-2.08, 1.36, 5.16, 2.17, 1.67, 7.59, repro,
2009-04-23,-0.54, 0.90, 3.67, 2.12, 1.62, 7.39, repro,
2009-04-24,0.46, 0.83, 1.46, 2.11, 1.61, 7.31, repro,
2009-04-25,-0.61, 0.20, 3.47, 2.17, 1.73, 7.60, repro,
2009-04-26,0.05, -0.13, -2.30, 2.08, 1.59, 7.26, repro,
2009-04-27,0.36, 1.42, 3.15, 2.15, 1.64, 7.46, repro,
2009-04-28,-0.55, 1.94, 2.52, 2.15, 1.64, 7.50, repro,
2009-04-29,0.50, 0.32, 2.01, 2.29, 1.79, 7.98, repro,
2009-04-30,-0.85, 0.70, 0.53, 2.16, 1.70, 7.55, repro,
2009-05-01,-0.77, -0.04, 2.92, 2.14, 1.63, 7.41, repro,
2009-05-02,-0.52, 0.82, 0.90, 2.10, 1.59, 7.29, repro,
2009-05-03,0.61, 1.93, -1.23, 2.11, 1.62, 7.43, repro,
2009-05-04,1.56, 1.63, -0.23, 2.15, 1.63, 7.51, repro,
2009-05-05,1.02, 1.43, -1.45, 2.07, 1.58, 7.21, repro,
2009-05-06,-1.08, 1.29, -3.76, 2.08, 1.59, 7.25, repro,
2009-05-07,-0.10, 1.26, -0.06, 2.07, 1.60, 7.35, repro,
2009-05-08,-0.36, 0.68, 4.10, 2.08, 1.60, 7.41, repro,
2009-05-09,-0.23, 1.00, 2.46, 2.08, 1.60, 7.40, repro,
2009-05-10,-0.06, 0.72, 0.59, 2.08, 1.60, 7.40, repro,
2009-05-11,-2.73, 0.52, 2.86, 2.06, 1.59, 7.33, repro,
2009-05-12,-0.47, 0.48, 2.63, 2.15, 1.66, 7.57, repro,
2009-05-13,-0.99, 0.35, 7.37, 2.12, 1.64, 7.50, repro,
2009-05-14,0.11, 0.94, 0.31, 2.08, 1.60, 7.42, repro,
2009-05-15,-0.69, 0.42, 3.06, 2.07, 1.60, 7.42, repro,
2009-05-16,-0.86, -0.14, 4.12, 2.06, 1.59, 7.35, repro,
2009-05-17,-1.44, 0.91, 2.95, 2.08, 1.59, 7.40, repro,
2009-05-18,0.30, 0.54, 6.30, 2.07, 1.61, 7.45, repro,
2009-05-19,0.08, 0.45, 5.88, 2.07, 1.62, 7.51, repro,
2009-05-20,0.26, 0.40, 4.85, 2.06, 1.59, 7.38, repro,
2009-05-21,-0.95, 1.09, 3.35, 2.06, 1.58, 7.36, repro,
2009-05-22,-1.69, 0.48, 4.05, 2.06, 1.58, 7.36, repro,
2009-05-23,-1.55, -0.01, 2.56, 2.06, 1.58, 7.35, repro,
2009-05-24,-1.33, 0.16, 1.59, 2.05, 1.60, 7.39, repro,
2009-05-25,-0.55, 1.38, 4.76, 2.04, 1.59, 7.33, repro,
2009-05-26,-1.36, 1.22, 8.70, 2.06, 1.60, 7.41, repro,
2009-05-27,-1.65, 1.16, 5.24, 2.06, 1.59, 7.43, repro,
2009-05-28,-1.31, 0.16, 15.04, 2.06, 1.59, 7.41, repro,
2009-05-29,-1.67, -0.79, 10.96, 2.07, 1.59, 7.45, repro,
2009-05-30,-2.25, 1.26, 2.91, 2.13, 1.64, 7.62, repro,
2009-05-31,-0.14, 1.13, 4.72, 2.09, 1.66, 7.62, repro,
2009-06-01,-0.66, -1.51, 9.14, 2.06, 1.60, 7.43, repro,
2009-06-02,-2.43, 1.21, 0.08, 2.07, 1.59, 7.44, repro,
2009-06-03,-1.90, -0.27, 4.87, 2.06, 1.59, 7.44, repro,
2009-06-04,-2.38, 2.27, 6.00, 2.06, 1.60, 7.44, repro,
2009-06-05,-1.14, 0.84, 4.50, 2.05, 1.59, 7.39, repro,
2009-06-06,-1.03, 0.59, 7.15, 2.13, 1.67, 7.75, repro,
2009-06-07,-1.27, 0.35, 3.67, 2.08, 1.64, 7.47, repro,